Location: Misciano
(43.5000°N, 11.9500°E)
Time: 08:21:01
(UTC+00:00)

Cosmos 2237 Rocket - Pass Details

Date: 13 August 2020
Orbit: 836 x 848 km, 71.0° (Epoch: 26 September)

Event Time Altitude Azimuth Distance (km) Brightness Sun altitude
Rises 21:23:07 0° 346° (NNW) 3,408 6.5 -26.6°
Reaches altitude 10° 21:26:48 10° 10° (N) 2,467 5.2 -26.9°
Maximum altitude 21:29:53 15° 43° (NE) 2,143 4.5 -27.2°
Enters shadow 21:31:56 12° 67° (ENE) 2,285 4.4 -27.4°
